When you browse on this site, cookies collect data to enhance your experience and personalize the content and advertising you see.
Visit our Privacy Policy to learn more. By continuing to use the site, you agree to this use of cookies and data.
  • In Belgium
  • List of Countries
  • For 7 days
  • Water Temperature
  • Satellite Maps
  • Weather Map
  • Weather Widgets
  • user-avatar
    Login

    Hourly Weather Suszow

    Today, 21 February, Thursday

    Time Temperature Precipitation Wind Pressure Humidity
    00:00 +1°C° 0 mm 5 mps 742 mmHg 80%
    01:00 0°C° 0 mm 5 mps 742 mmHg 82%
    02:00 0°C° 0 mm 5 mps 742 mmHg 85%
    03:00 -1°C° 0 mm 5 mps 742 mmHg 87%
    04:00 -1°C° 0 mm 5 mps 743 mmHg 89%
    05:00 -1°C° 0 mm 5 mps 743 mmHg 91%
    06:00 -1°C° 0 mm 4 mps 743 mmHg 92%
    07:00 -1°C° 0 mm 4 mps 743 mmHg 92%
    08:00 -2°C° 0 mm 4 mps 743 mmHg 93%
    09:00 -1°C° 0 mm 4 mps 744 mmHg 90%
    10:00 0°C° 0 mm 5 mps 744 mmHg 86%
    11:00 +1°C° 0 mm 5 mps 744 mmHg 83%
    12:00 +2°C° 0.2 mm 5 mps 744 mmHg 84%
    13:00 +2°C° 0.2 mm 5 mps 743 mmHg 85%
    14:00 +2°C° 0.2 mm 5 mps 743 mmHg 86%
    15:00 +2°C° 0.1 mm 5 mps 743 mmHg 85%
    16:00 +4°C° 0.1 mm 4 mps 743 mmHg 84%
    17:00 +4°C° 0.1 mm 4 mps 742 mmHg 83%
    18:00 +4°C° 0.3 mm 4 mps 742 mmHg 84%
    19:00 +3°C° 0.3 mm 4 mps 742 mmHg 86%
    20:00 +3°C° 0.3 mm 4 mps 742 mmHg 87%
    21:00 +3°C° 0.8 mm 4 mps 741 mmHg 88%
    22:00 +3°C° 0.8 mm 4 mps 741 mmHg 89%
    23:00 +2°C° 0.8 mm 5 mps 741 mmHg 90%

    Tomorrow, 22 February, Friday

    Time Temperature Precipitation Wind Pressure Humidity
    00:00 +3°C° 0.8 mm 4 mps 740 mmHg 90%
    01:00 +3°C° 0.8 mm 4 mps 740 mmHg 91%
    02:00 +3°C° 0.8 mm 4 mps 740 mmHg 91%
    03:00 +1°C° 0.7 mm 4 mps 740 mmHg 92%
    04:00 0°C° 0.7 mm 5 mps 740 mmHg 93%
    05:00 -1°C° 0.7 mm 5 mps 740 mmHg 93%
    06:00 -3°C° 0.5 mm 6 mps 740 mmHg 91%
    07:00 -4°C° 0.5 mm 7 mps 741 mmHg 88%
    08:00 -7°C° 0.5 mm 8 mps 742 mmHg 85%
    09:00 -7°C° 0.1 mm 8 mps 743 mmHg 80%
    10:00 -7°C° 0.1 mm 7 mps 745 mmHg 74%
    11:00 -6°C° 0.1 mm 7 mps 746 mmHg 69%
    12:00 -7°C° 0 mm 7 mps 747 mmHg 66%
    13:00 -7°C° 0 mm 7 mps 748 mmHg 62%
    14:00 -6°C° 0 mm 6 mps 748 mmHg 59%
    15:00 -6°C° 0 mm 6 mps 749 mmHg 59%
    16:00 -6°C° 0 mm 6 mps 749 mmHg 59%
    17:00 -8°C° 0 mm 6 mps 750 mmHg 58%
    18:00 -8°C° 0 mm 6 mps 751 mmHg 58%
    19:00 -8°C° 0 mm 6 mps 751 mmHg 57%
    20:00 -9°C° 0 mm 6 mps 752 mmHg 56%
    21:00 -9°C° 0 mm 6 mps 752 mmHg 55%
    22:00 -9°C° 0 mm 6 mps 753 mmHg 53%
    23:00 -9°C° 0 mm 6 mps 753 mmHg 52%

    Day after tomorrow, 23 February, Saturday

    Time Temperature Precipitation Wind Pressure Humidity
    00:00 -9°C° 0 mm 6 mps 754 mmHg 53%
    01:00 -10°C° 0 mm 6 mps 754 mmHg 53%
    02:00 -10°C° 0 mm 6 mps 754 mmHg 53%
    03:00 -10°C° 0 mm 5 mps 754 mmHg 55%
    04:00 -10°C° 0 mm 5 mps 754 mmHg 56%
    05:00 -10°C° 0 mm 5 mps 754 mmHg 57%
    06:00 -10°C° 0 mm 5 mps 755 mmHg 58%
    07:00 -10°C° 0 mm 4 mps 755 mmHg 59%
    08:00 -10°C° 0 mm 4 mps 755 mmHg 60%
    09:00 -9°C° 0 mm 4 mps 756 mmHg 57%
    10:00 -8°C° 0 mm 4 mps 756 mmHg 55%
    11:00 -8°C° 0 mm 5 mps 756 mmHg 52%
    12:00 -7°C° 0 mm 4 mps 756 mmHg 50%
    13:00 -7°C° 0 mm 4 mps 756 mmHg 48%
    14:00 -5°C° 0 mm 4 mps 756 mmHg 46%
    15:00 -5°C° 0 mm 4 mps 756 mmHg 47%
    16:00 -5°C° 0 mm 4 mps 756 mmHg 48%
    17:00 -5°C° 0 mm 4 mps 756 mmHg 49%
    18:00 -6°C° 0 mm 3 mps 756 mmHg 51%
    19:00 -6°C° 0 mm 3 mps 756 mmHg 54%
    20:00 -5°C° 0 mm 2 mps 756 mmHg 57%
    21:00 -5°C° 0 mm 2 mps 756 mmHg 56%
    22:00 -5°C° 0 mm 2 mps 756 mmHg 55%
    23:00 -5°C° 0 mm 2 mps 756 mmHg 54%

    24 February, Sunday

    Time Temperature Precipitation Wind Pressure Humidity
    00:00 -5°C° 0 mm 2 mps 756 mmHg 56%
    01:00 -5°C° 0 mm 2 mps 756 mmHg 57%
    02:00 -6°C° 0 mm 2 mps 755 mmHg 58%
    03:00 -5°C° 0 mm 2 mps 755 mmHg 57%
    04:00 -5°C° 0 mm 2 mps 755 mmHg 55%
    05:00 -5°C° 0 mm 2 mps 754 mmHg 53%
    06:00 -5°C° 0 mm 2 mps 754 mmHg 52%
    07:00 -5°C° 0 mm 2 mps 754 mmHg 51%
    08:00 -6°C° 0 mm 3 mps 754 mmHg 50%
    09:00 -5°C° 0 mm 3 mps 754 mmHg 46%
    10:00 -4°C° 0 mm 3 mps 754 mmHg 42%
    11:00 -1°C° 0 mm 3 mps 753 mmHg 38%
    12:00 -2°C° 0 mm 4 mps 753 mmHg 38%
    13:00 -1°C° 0 mm 4 mps 752 mmHg 37%
    14:00 0°C° 0 mm 4 mps 752 mmHg 37%
    15:00 0°C° 0 mm 4 mps 751 mmHg 40%
    16:00 0°C° 0 mm 4 mps 751 mmHg 43%
    17:00 +1°C° 0 mm 3 mps 750 mmHg 46%
    18:00 -1°C° 0 mm 4 mps 750 mmHg 50%
    19:00 -1°C° 0 mm 4 mps 750 mmHg 55%
    20:00 -1°C° 0 mm 4 mps 750 mmHg 59%
    21:00 -1°C° 0.1 mm 4 mps 749 mmHg 64%
    22:00 -2°C° 0.1 mm 4 mps 749 mmHg 70%
    23:00 -2°C° 0.1 mm 4 mps 748 mmHg 75%

    25 February, Monday

    Time Temperature Precipitation Wind Pressure Humidity
    00:00 -2°C° 0 mm 5 mps 748 mmHg 79%
    01:00 -2°C° 0 mm 5 mps 747 mmHg 82%
    02:00 -3°C° 0 mm 6 mps 746 mmHg 86%
    03:00 -2°C° 0.1 mm 6 mps 746 mmHg 88%
    04:00 -2°C° 0.1 mm 6 mps 746 mmHg 89%
    05:00 -1°C° 0.1 mm 7 mps 746 mmHg 91%
    06:00 -2°C° 0 mm 7 mps 746 mmHg 88%
    07:00 -2°C° 0 mm 7 mps 746 mmHg 86%
    08:00 -2°C° 0 mm 7 mps 746 mmHg 83%
    09:00 -2°C° 0 mm 7 mps 746 mmHg 81%
    10:00 -2°C° 0 mm 8 mps 746 mmHg 78%
    11:00 -1°C° 0 mm 9 mps 746 mmHg 75%
    12:00 -1°C° 0 mm 9 mps 746 mmHg 71%
    13:00 0°C° 0 mm 9 mps 746 mmHg 66%
    14:00 +1°C° 0 mm 9 mps 746 mmHg 61%
    15:00 0°C° 0 mm 9 mps 746 mmHg 63%
    16:00 0°C° 0 mm 8 mps 746 mmHg 65%
    17:00 -1°C° 0 mm 8 mps 746 mmHg 68%
    18:00 -1°C° 0 mm 7 mps 746 mmHg 68%
    19:00 -1°C° 0 mm 7 mps 747 mmHg 69%
    20:00 -2°C° 0 mm 6 mps 747 mmHg 70%
    21:00 -2°C° 0 mm 6 mps 747 mmHg 73%
    22:00 -3°C° 0 mm 6 mps 747 mmHg 76%
    23:00 -4°C° 0 mm 5 mps 748 mmHg 79%

    26 February, Tuesday

    Time Temperature Precipitation Wind Pressure Humidity
    00:00 -4°C° 0 mm 5 mps 748 mmHg 82%
    01:00 -4°C° 0 mm 5 mps 748 mmHg 84%
    02:00 -4°C° 0 mm 5 mps 747 mmHg 87%
    03:00 -4°C° 0 mm 5 mps 747 mmHg 88%
    04:00 -4°C° 0 mm 5 mps 747 mmHg 90%
    05:00 -4°C° 0 mm 5 mps 747 mmHg 91%
    06:00 -2°C° 0 mm 5 mps 747 mmHg 91%
    07:00 -2°C° 0 mm 4 mps 747 mmHg 90%
    08:00 -2°C° 0 mm 4 mps 747 mmHg 89%
    09:00 -2°C° 0 mm 4 mps 747 mmHg 88%
    10:00 -1°C° 0 mm 4 mps 747 mmHg 86%
    11:00 -1°C° 0 mm 4 mps 747 mmHg 84%
    12:00 0°C° 0 mm 4 mps 746 mmHg 81%
    13:00 +1°C° 0 mm 4 mps 746 mmHg 79%
    14:00 +3°C° 0 mm 4 mps 746 mmHg 76%
    15:00 +3°C° 0 mm 4 mps 745 mmHg 76%
    16:00 +3°C° 0 mm 3 mps 745 mmHg 76%
    17:00 +3°C° 0 mm 3 mps 744 mmHg 76%
    18:00 +2°C° 0 mm 3 mps 744 mmHg 78%
    19:00 +1°C° 0 mm 3 mps 744 mmHg 80%
    20:00 0°C° 0 mm 3 mps 744 mmHg 82%
    21:00 0°C° 0 mm 3 mps 744 mmHg 82%
    22:00 0°C° 0 mm 3 mps 743 mmHg 82%
    23:00 -1°C° 0 mm 3 mps 743 mmHg 83%
    Show more